Find GPS IIR-12

NORAD ID: 28361 Int'l Des: 2004-023 Owner: AFSMC Country: US Constellation: GPS operational
MEOGNSS

現在のビュー

3D地球を読み込み中...

GPS IIR-12について

説明を読み込み中...

次回通過

Passes for default location (London). Set your location on the main map for personalized predictions.

高度履歴

Loading altitude history...

軌道要素

1 28361U 04023A 26150.44519389 -.00000046 00000-0 00000+0 0 9996
2 28361 54.8526 87.4278 0160214 301.4431 241.6262 2.00556236160681
Epoch: May 30, 2026 • Age: 29 hours

現在のステータス

高度 19837.6 km
速度 3.92 km/s
衛星直下点 -18.94°S, 51.03°W
打ち上げ日 Jun 23, 2004
運用期間 21.9 years
タイプ navigation

技術仕様

分類 Payload
質量 1077.00 kg
乾燥質量 910.00 kg
総質量 2032.00 kg
長さ 1.50 m
直径 1.90 m
スパン 19.30 m
形状 Box + 2 Pan
製造者 LMMS
バスタイプ Series 4000
フェーズステータス In Orbit
所有者/国 AFSMC/US

Most Searched